Regional Weather Roundup
Issued by NWS Grand Forks, ND

Home | Current Version | Previous Version | Text Only | Print | Product List | Glossary Off
Versions: 1 2 3 4 5 6 7 8 9 10 11 12 13 14 15 16 17 18 19 20 21 22 23 24 25 26 27 28 29 30 31 32 33 34 35 36 37 38 39 40 41 42 43 44 45 46 47 48 49 50

000
ASUS43 KFGF 231431
RWRFGF
PRAIRIE TO PINES  WEATHER ROUNDUP
NATIONAL WEATHER SERVICE EASTERN NORTH DAKOTA/GRAND FORKS ND
900 AM CDT WED APR 23 2014

 **SATELLITE DATA USED TO AUGMENT SKY COVER AT AUTOMATED STATIONS**
 *****  WEATHER ACROSS EASTERN NORTH DAKOTA  *****

CITY           SKY/WX    TMP DP  RH WIND       PRES   REMARKS
GRAND FORKS    CLOUDY    47  30  51 SE20      29.89F
GRAND FRKS AFB CLOUDY    47  31  53 SE18G24   29.88F
GRAND FRKS NWS   N/A     48 N/A N/A SE23        N/A
DEVILS LAKE    CLOUDY    39  34  81 SE17G23   29.79R
FARGO          RAIN      44  38  79 SE23G36   29.89F
WAHPETON ARPT  CLOUDY    41  37  87 SE22      29.92F
$$

 ***** WEATHER ACROSS CENTRAL AND WESTERN NORTH DAKOTA  *****

CITY           SKY/WX    TMP DP  RH WIND       PRES   REMARKS
BISMARCK       CLOUDY    51  39  63 SE23G29   29.59F
MINOT          LGT RAIN  47  42  83 E24G38    29.60F
JAMESTOWN      CLOUDY    45  41  86 SE26G32   29.76R
MINOT AFB      DRIZZLE   47  47  99 SE23G29   29.62S
GARRISON         N/A     48  40  73 SE32G43   29.56F
WILLISTON      PTSUNNY   51  39  63 SE28G37   29.45R
DICKINSON      CLOUDY    50  36  58 SE20G28   29.42F
HETTINGER      CLOUDY    52  34  50 SE21G30   29.46R
$$

 *****  OTHER AIRPORT OBSERVATIONS IN OUR AREA  *****

CITY           SKY/WX    TMP DP  RH WIND       PRES   REMARKS
WALHALLA       FAIR      41  32  70 SE13G20   29.89F
GRAFTON AIRPOR FAIR      45  32  61 SE17G23   29.89F
VALLEY CITY AR CLOUDY    43  43 100 SE18G31   29.80F
CANDO          CLOUDY    41  36  81 SE22G28   29.77F
CAVALIER APRT  FAIR      45  32  61 SE8       29.89F
GWINNER        CLOUDY    46  41  81 SE32G41   29.83F
SHEYENNE NWR     N/A     44  44  99 SE14      29.95
ROLLA          CLOUDY    41  34  75 SE21G28   29.76F
 ***** THE ABOVE OBSERVATIONS ARE NON NWS ARE NOT QUALITY
       CONTROLLED AND MAY MIS-REPORT RAIN FOR SNOW...
$$

  *****  WEATHER ACROSS NORTHERN MINNESOTA  *****

CITY           SKY/WX    TMP DP  RH WIND       PRES   REMARKS
FLAG ISLAND    MOSUNNY   41  23  48 SE8       30.04S
WARROAD        CLOUDY    39  28  65 E7        30.02S
ROSEAU         CLOUDY    46  27  46 SE10      29.99F
HALLOCK          N/A     46  27  46 SE16      29.92F
THF RVR FALLS  CLOUDY    45  25  45 SE14      29.95F
BAUDETTE       CLOUDY    42  25  50 SE8       30.04F
WASKISH        CLOUDY    45  27  49 SE9       30.04S
CROOKSTON      CLOUDY    50  28  43 SE21      29.93F
$$
  *****  WEATHER ACROSS CENTRAL AND WEST MINNESOTA  *****

CITY           SKY/WX    TMP DP  RH WIND       PRES   REMARKS
FOSSTON        CLOUDY    46  23  39 SE13G20   29.96S
BEMIDJI        CLOUDY    42  25  51 SE12      30.02S
PARK RAPIDS    CLOUDY    44  25  47 SE13      30.01R
ELBOW LAKE     RAIN      40  38  91 SE23      29.95F
WADENA         CLOUDY    45  27  49 SE15G22   30.00S
DETROIT LAKES  RAIN      43  32  65 S16G23    29.96F
MOORHEAD       HVY RAIN  45  41  87 SE21G33   29.91F
FERGUS FALLS   LGT RAIN  41  36  81 SE21G26   29.92F
MORRIS MN      LGT RAIN  41  37  87 SE23G32   29.93F
STAPLES        CLOUDY    45  25  45 SE10G17   30.02F
$$
  *****  WEATHER ELSEWHERE ACROSS MINNESOTA  *****

CITY           SKY/WX    TMP DP  RH WIND       PRES   REMARKS
DULUTH         CLOUDY    38  26  62 E10       30.11S
INTRNTL FALLS  PTSUNNY   44  24  45 SE7       30.08F
ELY            PTSUNNY   45  25  45 SE3       30.11F
CLOQUET        CLOUDY    37  27  65 E6        30.11S
WHEATON        CLOUDY    45  41  87 SE25      29.93F
BRAINERD       CLOUDY    49  26  41 S8        30.07R
HIBBING        CLOUDY    40  27  59 SE8       30.10F
ALEXANDRIA     LGT RAIN  41  34  76 SE10      30.02R
SAINT CLOUD    CLOUDY    46  26  45 SE12G20   30.05S
MINNEAPOLIS    CLOUDY    44  28  53 SE14      30.09F
$$

  *****  WEATHER ACROSS SOUTH DAKOTA  *****

CITY           SKY/WX    TMP DP  RH WIND       PRES   REMARKS
SIOUX FALLS    CLOUDY    50  35  56 SE24G41   29.83F
BROOKINGS      NOT AVBL
WATERTOWN      CLOUDY    46  38  73 SE17G30   29.84S
HURON          CLOUDY    55  34  45 SE21G37   29.71F
SISSETON         N/A     43  39  86 SE21      29.88F
ABERDEEN       LGT RAIN  49  38  65 SE22G31   29.76F
MITCHELL       CLOUDY    54  36  50 SE32G53   29.70F
PIERRE         CLOUDY    53  35  50 SE26      29.55S
MOBRIDGE       CLOUDY    51  37  58 SE35G45   29.55S
RAPID CITY     CLOUDY    56  45  66 E5        29.45R
$$

  *****  SOME WEATHER IN NEARBY STATES *****

CITY           SKY/WX    TMP DP  RH WIND       PRES   REMARKS
GLASGOW MT     LGT RAIN  43  41  93 NW24G35   29.48R FOG
GREAT FALLS MT MOSUNNY   38  26  62 SW16      29.65R
CHEYENNE WY    PTSUNNY   48  32  53 NW23G37   29.68R
SCOTTSBLUFF NE CLOUDY    56  40  55 W17       29.59R
OMAHA NE       LGT RAIN  49  40  71 SE23      29.91F
DES MOINES IA  CLOUDY    51  32  48 SE12      30.05F
DAVENPORT IA   PTSUNNY   44  29  55 SE14      30.17R
CHICAGO IL     MOSUNNY   42  25  50 NE15      30.18R
EAU CLAIRE WI  CLOUDY    44  26  49 S14       30.15R
LA CROSSE WI   PTSUNNY   46  27  47 S13       30.16S
$$

  *****  SOME NATIONAL WEATHER *****

CITY           SKY/WX    TMP DP  RH WIND       PRES   REMARKS
LA GUARDIA NY  PTSUNNY   51  34  52 NW24G30   29.58S
RALEIGH NC     MOSUNNY   63  31  30 N10G17    29.85R
ATLANTA GA     FAIR      62  46  55 NW10      29.96R
NEW ORLEANS LA FAIR      72  63  73 NE8       29.98S
OKLAHOMA CITY  FAIR      66  49  54 S15       29.90S
ALBUQUERQUE NM MOSUNNY   61  26  26 SW7       29.89R
SALT LAKE CITY PTSUNNY   41  28  60 NW9       29.99R
LOS ANGELES CA MOCLDY    58  50  75 E6        29.95R
BOISE ID       SUNNY     36  31  82 E5        30.01R
SEATTLE WA     LGT RAIN  45  39  81 S13       29.91S
$$

*** WEATHER ACROSS MANITOBA...SASKATCHEWAN AND ONTARIO ***
                ***ONTARIO***

CITY           SKY/WX    TMP DP  RH WIND       PRES   REMARKS
GERALDTON      PTSUNNY   39  27  60 W7        30.13S
THUNDER BAY    MOSUNNY   39  28  65 VRB3      30.17F
SIOUX LOOKOUT  MOSUNNY   41  23  48 CALM      30.12S
TORONTO        PTSUNNY   39  27  60 N22G32    29.92R
BIG TROUT LK   PTSUNNY   39  18  41 VRB2      30.14S
PICKLE LAKE    PTSUNNY   37  19  48 SE5       30.11S
DRYDEN         SUNNY     43  19  39 S6        30.10S
KENORA         PTSUNNY   43  23  45 S12       30.07F
$$
                *** MANITOBA***

CITY           SKY/WX    TMP DP  RH WIND       PRES   REMARKS
BRANDON        CLOUDY    41  34  75 E16G22    29.83F
DAUPHIN        SUNNY     39  32  75 E12G18    29.87F
ISLAND LAKE    MOSUNNY   39  36  87 E5        30.08F
PILOT MOUND      N/A     43  34  70 SE23G30     N/A
THE PAS        CLOUDY    39  28  65 E10         N/A
THOMPSON       SUNNY     28  23  80 NE12      30.16R WCI  18
WINNIPEG       CLOUDY    45  25  45 SE13G20   29.96F
LYNN LAKE      SUNNY     25  19  80 NE12      30.17R WCI  14
CHURCHILL      CLOUDY    21  18  86 NW16      30.29S WCI   7
GILLAM         PTSUNNY   28  25  86 NE7       30.21S WCI  21
$$
                ***SASKATCHEWAN***

CITY           SKY/WX    TMP DP  RH WIND       PRES   REMARKS
ESTEVAN        CLOUDY    48  41  76 SE28G35   29.53S
KINDERSLEY     LGT RAIN  43  39  87 E21       29.40F
LLOYDMINSTER   CLOUDY    45  34  65 SE23G36   29.46F
PRINCE ALBERT  CLOUDY    43  34  70 E16       29.72S
REGINA         LGT RAIN  45  37  76 SE20G29   29.56R
YORKTON        SUNNY     45  32  61 E23G30    29.72F
N. BATTLEFORD  PTSUNNY   45  36  70 E22G33    29.55R
LA RONGE       CLOUDY    37  30  75 NE13G22   29.89F
SASKATOON      CLOUDY    43  34  70 E24G30    29.58S
SWIFT CURRENT  LGT RAIN  41  39  93 S7        29.44S
$$
NOTE: THESE ARE AUTOMATED STATIONS WITH LIMITED QUALITY CONTROL
      "FAIR" INDICATES FEW OR NO CLOUDS BELOW 12,000 FEET WITH NO
      SIGNIFICANT WEATHER AND/OR OBSTRUCTIONS TO VISIBILITY.
      SKY/WX - SKY CONDITION AND SIGNIFICANT WEATHER.
      TMP - AIR TEMPERATURE.    DP   - DEWPOINT TEMPERATURE.
      RH  - RELATIVE HUMIDITY.  PRES - PRESSURE.
      HX  - HEAT INDEX.         WCI  - WIND CHILL INDEX.
$



USA.gov is the U.S. government's official web portal to all federal, state and local government web resources and services.